Terminal Aerodrome Forecast
Issued by NWS

Home | Current Version | Previous Version | Text Only | Print | Product List | Glossary On
Versions: 1 2 3 4 5 6 7 8 9 10 11 12 13 14 15 16 17 18 19 20
000
FTUS44 KCRP 161700
TAFLRD
TAF
KLRD 161740Z 1618/1718 05005KT P6SM VCSH BKN035 OVC150
      TEMPO 1618/1622 VRB15G25KT 5SM TSRA OVC030CB
     FM170000 VRB03KT P6SM VCSH BKN040
      TEMPO 1700/1702 VRB15G25KT 3SM TSRA OVC035CB
     FM170200 VRB03KT P6SM BKN040 OVC100
     FM170800 VRB03KT P6SM OVC020 PROB30 1715/1718 VRB15G25KT 5SM
      TSRA OVC015CB=

USA.gov is the U.S. government's official web portal to all federal, state and local government web resources and services.